Time,TemperatureF,DewpointF,PressureIn,WindDirection,WindDirectionDegrees,WindSpeedMPH,WindSpeedGustMPH,Humidity,HourlyPrecipIn,Conditions,Clouds,dailyrainin,SoftwareType,DateUTC
2013-07-25 00:14:00,82.6,70.5,29.85,ESE,112,1.7,-999.0,67,-99.99,,,0.00,Acu-Link.com,2013-07-25 05:14:00,
2013-07-25 00:29:00,82.2,70.6,29.85,SSE,157,1.7,-999.0,68,-99.99,,,0.00,Acu-Link.com,2013-07-25 05:29:00,
2013-07-25 00:45:00,81.9,70.7,29.85,SE,135,1.7,-999.0,69,-99.99,,,0.00,Acu-Link.com,2013-07-25 05:45:00,
2013-07-25 01:00:00,81.1,70.4,29.86,SE,135,0.0,-999.0,70,-99.99,,,0.00,Acu-Link.com,2013-07-25 06:00:00,
2013-07-25 01:15:00,80.4,70.5,29.86,SSW,202,0.0,-999.0,72,-99.99,,,0.00,Acu-Link.com,2013-07-25 06:15:00,
2013-07-25 01:31:00,80.1,70.2,29.86,SSW,202,0.0,-999.0,72,-99.99,,,0.00,Acu-Link.com,2013-07-25 06:31:00,
2013-07-25 01:46:00,79.9,70.5,29.85,SSE,157,2.2,-999.0,73,-99.99,,,0.00,Acu-Link.com,2013-07-25 06:46:00,
2013-07-25 02:02:00,79.9,70.5,29.85,SE,135,1.1,-999.0,73,-99.99,,,0.00,Acu-Link.com,2013-07-25 07:02:00,
2013-07-25 02:17:00,79.7,70.3,29.85,SE,135,1.1,-999.0,73,-99.99,,,0.00,Acu-Link.com,2013-07-25 07:17:00,
2013-07-25 02:32:00,79.5,70.5,29.85,SE,135,2.2,-999.0,74,-99.99,,,0.00,Acu-Link.com,2013-07-25 07:32:00,
2013-07-25 02:48:00,79.2,70.6,29.85,South,180,0.0,-999.0,75,-99.99,,,0.00,Acu-Link.com,2013-07-25 07:48:00,
2013-07-25 03:03:00,78.6,70.0,29.85,SSE,157,0.0,-999.0,75,-99.99,,,0.00,Acu-Link.com,2013-07-25 08:03:00,
2013-07-25 03:18:00,78.6,70.4,29.85,SE,135,0.0,-999.0,76,-99.99,,,0.00,Acu-Link.com,2013-07-25 08:18:00,
2013-07-25 03:33:00,78.6,70.4,29.86,SE,135,0.0,-999.0,76,-99.99,,,0.00,Acu-Link.com,2013-07-25 08:33:00,
2013-07-25 03:49:00,78.3,70.9,29.87,SE,135,0.0,-999.0,78,-99.99,,,0.00,Acu-Link.com,2013-07-25 08:49:00,
2013-07-25 04:04:00,77.7,70.3,29.87,ESE,112,1.1,-999.0,78,-99.99,,,0.00,Acu-Link.com,2013-07-25 09:04:00,
2013-07-25 04:19:00,77.2,70.5,29.87,ESE,112,1.7,-999.0,80,-99.99,,,0.00,Acu-Link.com,2013-07-25 09:19:00,
2013-07-25 04:34:00,77.4,70.0,29.88,East,90,2.2,-999.0,78,-99.99,,,0.00,Acu-Link.com,2013-07-25 09:34:00,
2013-07-25 04:49:00,77.4,70.0,29.88,ESE,112,2.2,-999.0,78,-99.99,,,0.00,Acu-Link.com,2013-07-25 09:49:00,
2013-07-25 05:05:00,77.2,69.4,29.88,ESE,112,2.2,-999.0,77,-99.99,,,0.00,Acu-Link.com,2013-07-25 10:05:00,
2013-07-25 05:20:00,77.2,69.4,29.87,SE,135,2.7,-999.0,77,-99.99,,,0.00,Acu-Link.com,2013-07-25 10:20:00,
2013-07-25 05:36:00,76.8,69.0,29.88,SE,135,0.0,-999.0,77,-99.99,,,0.00,Acu-Link.com,2013-07-25 10:36:00,
2013-07-25 05:51:00,76.5,68.7,29.87,SE,135,1.7,-999.0,77,-99.99,,,0.00,Acu-Link.com,2013-07-25 10:51:00,
2013-07-25 06:21:00,75.9,68.9,29.87,ESE,112,2.2,-999.0,79,-99.99,,,0.00,Acu-Link.com,2013-07-25 11:21:00,
2013-07-25 06:36:00,75.6,69.0,29.87,SE,135,1.1,-999.0,80,-99.99,,,0.00,Acu-Link.com,2013-07-25 11:36:00,
2013-07-25 06:51:00,75.2,69.0,29.88,SSE,157,1.7,-999.0,81,-99.99,,,0.00,Acu-Link.com,2013-07-25 11:51:00,
2013-07-25 07:07:00,75.2,69.0,29.88,SE,135,0.0,-999.0,81,-99.99,,,0.00,Acu-Link.com,2013-07-25 12:07:00,
2013-07-25 07:22:00,75.4,69.2,29.89,East,90,1.7,-999.0,81,-99.99,,,0.00,Acu-Link.com,2013-07-25 12:22:00,
2013-07-25 07:38:00,76.1,69.8,29.88,East,90,1.7,-999.0,81,-99.99,,,0.00,Acu-Link.com,2013-07-25 12:38:00,
2013-07-25 07:53:00,77.2,70.2,29.90,SE,135,2.2,-999.0,79,-99.99,,,0.00,Acu-Link.com,2013-07-25 12:53:00,
2013-07-25 08:08:00,78.4,70.6,29.89,East,90,3.7,-999.0,77,-99.99,,,0.00,Acu-Link.com,2013-07-25 13:08:00,
2013-07-25 08:24:00,79.7,71.1,29.89,South,180,3.2,-999.0,75,-99.99,,,0.00,Acu-Link.com,2013-07-25 13:24:00,
2013-07-25 08:39:00,81.9,71.1,29.89,SW,225,0.0,-999.0,70,-99.99,,,0.00,Acu-Link.com,2013-07-25 13:39:00,
2013-07-25 08:54:00,82.8,71.6,29.89,SW,225,2.2,-999.0,69,-99.99,,,0.00,Acu-Link.com,2013-07-25 13:54:00,
2013-07-25 09:09:00,84.9,72.2,29.90,West,270,1.1,-999.0,66,-99.99,,,0.00,Acu-Link.com,2013-07-25 14:09:00,
2013-07-25 09:25:00,85.3,72.6,29.89,ESE,112,3.2,-999.0,66,-99.99,,,0.00,Acu-Link.com,2013-07-25 14:25:00,
2013-07-25 09:41:00,87.6,72.9,29.89,South,180,2.7,-999.0,62,-99.99,,,0.00,Acu-Link.com,2013-07-25 14:41:00,
2013-07-25 09:56:00,89.1,72.9,29.89,SW,225,1.7,-999.0,59,-99.99,,,0.00,Acu-Link.com,2013-07-25 14:56:00,
2013-07-25 10:12:00,90.9,73.0,29.89,SE,135,1.1,-999.0,56,-99.99,,,0.00,Acu-Link.com,2013-07-25 15:12:00,
2013-07-25 10:42:00,91.0,72.6,29.89,WSW,247,2.2,-999.0,55,-99.99,,,0.00,Acu-Link.com,2013-07-25 15:42:00,
2013-07-25 10:58:00,94.1,72.6,29.90,ESE,112,4.2,-999.0,50,-99.99,,,0.00,Acu-Link.com,2013-07-25 15:58:00,
2013-07-25 11:13:00,95.2,73.0,29.90,ESE,112,3.2,-999.0,49,-99.99,,,0.00,Acu-Link.com,2013-07-25 16:13:00,
2013-07-25 11:28:00,96.3,72.1,29.91,NNW,337,1.1,-999.0,46,-99.99,,,0.00,Acu-Link.com,2013-07-25 16:28:00,
2013-07-25 11:43:00,92.5,71.7,29.91,SSE,157,1.7,-999.0,51,-99.99,,,0.00,Acu-Link.com,2013-07-25 16:43:00,
2013-07-25 11:59:00,95.4,71.9,29.90,South,180,2.2,-999.0,47,-99.99,,,0.00,Acu-Link.com,2013-07-25 16:59:00,
2013-07-25 12:14:00,93.9,71.2,29.90,SW,225,5.3,-999.0,48,-99.99,,,0.00,Acu-Link.com,2013-07-25 17:14:00,
2013-07-25 12:29:00,96.4,70.2,29.89,SSW,202,5.3,-999.0,43,-99.99,,,0.00,Acu-Link.com,2013-07-25 17:29:00,
2013-07-25 12:45:00,97.9,70.8,29.90,South,180,2.2,-999.0,42,-99.99,,,0.00,Acu-Link.com,2013-07-25 17:45:00,
2013-07-25 13:00:00,97.9,70.1,29.89,SW,225,2.2,-999.0,41,-99.99,,,0.00,Acu-Link.com,2013-07-25 18:00:00,
2013-07-25 13:15:00,95.4,70.6,29.89,SSW,202,2.2,-999.0,45,-99.99,,,0.00,Acu-Link.com,2013-07-25 18:15:00,
2013-07-25 13:31:00,100.2,71.5,29.89,East,90,2.2,-999.0,40,-99.99,,,0.00,Acu-Link.com,2013-07-25 18:31:00,
2013-07-25 14:01:00,100.2,68.4,29.89,East,90,5.8,-999.0,36,-99.99,,,0.00,Acu-Link.com,2013-07-25 19:01:00,
2013-07-25 14:32:00,102.2,68.4,29.88,ENE,67,5.3,-999.0,34,-99.99,,,0.00,Acu-Link.com,2013-07-25 19:32:00,
2013-07-25 14:48:00,99.1,68.2,29.87,SE,135,4.7,-999.0,37,-99.99,,,0.00,Acu-Link.com,2013-07-25 19:48:00,
2013-07-25 15:03:00,99.1,69.0,29.87,South,180,1.1,-999.0,38,-99.99,,,0.00,Acu-Link.com,2013-07-25 20:03:00,
2013-07-25 15:18:00,101.5,69.5,29.88,SE,135,1.7,-999.0,36,-99.99,,,0.00,Acu-Link.com,2013-07-25 20:18:00,
2013-07-25 15:33:00,97.3,68.1,29.87,East,90,4.7,-999.0,39,-99.99,,,0.00,Acu-Link.com,2013-07-25 20:33:00,
2013-07-25 15:48:00,100.0,68.2,29.87,ESE,112,4.7,-999.0,36,-99.99,,,0.00,Acu-Link.com,2013-07-25 20:48:00,
2013-07-25 16:03:00,102.7,68.0,29.87,ESE,112,4.7,-999.0,33,-99.99,,,0.00,Acu-Link.com,2013-07-25 21:03:00,
2013-07-25 16:18:00,97.2,68.8,29.85,East,90,8.9,-999.0,40,-99.99,,,0.00,Acu-Link.com,2013-07-25 21:18:00,
2013-07-25 16:33:00,97.3,68.1,29.85,SE,135,4.7,-999.0,39,-99.99,,,0.00,Acu-Link.com,2013-07-25 21:33:00,
2013-07-25 16:49:00,96.4,68.1,29.85,SE,135,5.3,-999.0,40,-99.99,,,0.00,Acu-Link.com,2013-07-25 21:49:00,
2013-07-25 17:04:00,93.6,69.0,29.85,ESE,112,8.9,-999.0,45,-99.99,,,0.00,Acu-Link.com,2013-07-25 22:04:00,
2013-07-25 17:20:00,94.8,69.4,29.84,East,90,6.3,-999.0,44,-99.99,,,0.00,Acu-Link.com,2013-07-25 22:20:00,
2013-07-25 17:35:00,93.6,69.0,29.84,East,90,3.7,-999.0,45,-99.99,,,0.00,Acu-Link.com,2013-07-25 22:35:00,
2013-07-25 17:50:00,93.0,70.4,29.84,ENE,67,9.4,-999.0,48,-99.99,,,0.00,Acu-Link.com,2013-07-25 22:50:00,
2013-07-25 18:05:00,92.5,70.5,29.84,ENE,67,7.3,-999.0,49,-99.99,,,0.00,Acu-Link.com,2013-07-25 23:05:00,
2013-07-25 18:21:00,93.4,71.3,29.84,ESE,112,10.4,-999.0,49,-99.99,,,0.00,Acu-Link.com,2013-07-25 23:21:00,
2013-07-25 18:36:00,93.2,71.2,29.84,East,90,8.9,-999.0,49,-99.99,,,0.00,Acu-Link.com,2013-07-25 23:36:00,
2013-07-25 19:07:00,90.7,70.0,29.83,ENE,67,9.4,-999.0,51,-99.99,,,0.00,Acu-Link.com,2013-07-26 00:07:00,
2013-07-25 19:22:00,91.0,70.9,29.83,ESE,112,4.7,-999.0,52,-99.99,,,0.00,Acu-Link.com,2013-07-26 00:22:00,
2013-07-25 19:37:00,89.8,70.3,29.83,ESE,112,6.8,-999.0,53,-99.99,,,0.00,Acu-Link.com,2013-07-26 00:37:00,
2013-07-25 19:52:00,88.9,70.6,29.83,ENE,67,7.3,-999.0,55,-99.99,,,0.00,Acu-Link.com,2013-07-26 00:52:00,
2013-07-25 20:08:00,88.2,70.5,29.82,ESE,112,7.3,-999.0,56,-99.99,,,0.00,Acu-Link.com,2013-07-26 01:08:00,
2013-07-25 20:23:00,87.8,70.6,29.84,ESE,112,5.8,-999.0,57,-99.99,,,0.00,Acu-Link.com,2013-07-26 01:23:00,
2013-07-25 20:39:00,87.3,70.7,29.83,East,90,3.2,-999.0,58,-99.99,,,0.00,Acu-Link.com,2013-07-26 01:39:00,
2013-07-25 20:54:00,86.9,70.3,29.83,East,90,5.3,-999.0,58,-99.99,,,0.00,Acu-Link.com,2013-07-26 01:54:00,
2013-07-25 21:09:00,86.4,70.3,29.85,East,90,3.7,-999.0,59,-99.99,,,0.00,Acu-Link.com,2013-07-26 02:09:00,
2013-07-25 21:25:00,85.6,70.1,29.85,ESE,112,4.7,-999.0,60,-99.99,,,0.00,Acu-Link.com,2013-07-26 02:25:00,
2013-07-25 21:41:00,85.3,70.3,29.86,ESE,112,5.8,-999.0,61,-99.99,,,0.00,Acu-Link.com,2013-07-26 02:41:00,
2013-07-25 22:12:00,84.6,70.1,29.88,ENE,67,4.2,-999.0,62,-99.99,,,0.00,Acu-Link.com,2013-07-26 03:12:00,
2013-07-25 22:27:00,84.2,70.2,29.87,ESE,112,4.2,-999.0,63,-99.99,,,0.00,Acu-Link.com,2013-07-26 03:27:00,
2013-07-25 22:42:00,84.0,70.0,29.89,East,90,2.7,-999.0,63,-99.99,,,0.00,Acu-Link.com,2013-07-26 03:42:00,
2013-07-25 22:57:00,83.5,69.6,29.88,ESE,112,2.7,-999.0,63,-99.99,,,0.00,Acu-Link.com,2013-07-26 03:57:00,
2013-07-25 23:12:00,83.3,69.4,29.88,SE,135,2.7,-999.0,63,-99.99,,,0.00,Acu-Link.com,2013-07-26 04:12:00,
2013-07-25 23:28:00,83.1,68.7,29.89,SSE,157,2.7,-999.0,62,-99.99,,,0.00,Acu-Link.com,2013-07-26 04:28:00,
2013-07-25 23:43:00,83.3,67.4,29.89,SE,135,4.7,-999.0,59,-99.99,,,0.00,Acu-Link.com,2013-07-26 04:43:00,
2013-07-25 23:58:00,83.3,66.4,29.88,South,180,5.3,-999.0,57,-99.99,,,0.00,Acu-Link.com,2013-07-26 04:58:00,